Powrót do katalogu

SL-16 DEB

AktywnyLEO
NORAD 22224·DEBRIS·🇷🇺 Russia

Wystrzelony Nov 17, 1992 z Baikonur Cosmodrome

Loading…

Następne Przeloty (najbliższe 24 godziny)

TLE

ŚwieżeSource: Space-Track

Epoka: Sep 14, 2026, 13:03 UTC

1 22224U 92076F   26257.54399149  .00000019  00000-0  57523-4 0  9998
2 22224  70.9899  91.1232 0195847 218.1151 140.5965 13.74981658696729

Śledź SL-16 DEB w czasie rzeczywistym z AllMySat

Download on the App Store